[[{"header":{"parameterUnit":"m.s-1","parameterCategory":2,"la1":30.2991,"la2":30.254,"lo1":-89.0895,"lo2":-89.0444,"dy":0.0017,"dx":0.0017,"nx":28,"ny":28,"refTime":"2025-05-19T03:00:00:Z","depth":"0","parameterNumber":2,"parameterNumberName":"U-component_of_CURRENTS"},"data":[0,0,0,0,0,0,0,0,0,0,0,0,0,0,0,0,0,0,0,0,0,0,0,0,0,0,0,0,0,0,0,0,0,0,0,0,0,0,0,0,0,0,0,0,0,0,0,0,0,0,0,0,0,0,0,0,0,0,0.1315,0.1316,0,0.1369,0.1369,0.1369,0.1403,0.1403,0.1404,0.1404,0.1431,0.1431,0.1432,0,0,0,0,0,0,0,0,0,0,0,0,0,0.1232,0.1233,0.1315,0.1316,0.1317,0.1368,0.1369,0.137,0.1403,0.1403,0.1404,0.1404,0.1431,0.1431,0.1432,0,0,0,0,0,0,0,0,0,0,0,0,0,0.1273,0.1234,0.1315,0.1341,0.1344,0.1368,0.1369,0.137,0.1403,0.1403,0.1404,0.1404,0.1431,0.1431,0.1432,0.1425,0,0,0.1434,0.1434,0,0,0,0,0,0,0,0,0.1271,0.1276,0.1336,0.1339,0.1342,0.1381,0.135,0.1388,0.1403,0.1378,0.1404,0.1405,0.1413,0.1415,0.1422,0.1426,0.1427,0.1434,0.1434,0.1434,0.1435,0,0,0,0,0,0,0,0.1268,0.1274,0.1334,0.1337,0.1341,0.1347,0.1353,0.1357,0.139,0.1381,0.1384,0.1392,0.1414,0.1421,0.1422,0.1428,0.1434,0.1434,0.1435,0.1435,0.1523,0.1525,0,0,0,0,0,0,0.1265,0.1271,0.1333,0.1336,0.1309,0.1348,0.1355,0.1367,0.1391,0.1396,0.1392,0.1394,0.142,0.1422,0.1423,0.1511,0.1434,0.1435,0.1435,0.1521,0.1524,0.1526,0,0,0,0,0,0,0.1263,0.127,0.133,0.1306,0.1314,0.1349,0.1362,0.1368,0.1377,0.14,0.1404,0.1396,0.142,0.1423,0.1439,0.1508,0.1435,0.1436,0.1519,0.1522,0.1525,0.1624,0,0,0,0,0,0,0.1261,0.1269,0.1274,0.1306,0.1316,0.1355,0.1362,0.1368,0.1382,0.1385,0.1405,0.1408,0.1421,0.1438,0.1439,0.1508,0.1436,0.1516,0.152,0.1524,0.1618,0.163,0.164,0,0,0,0,0,0.1258,0.1275,0.1274,0.1282,0.1323,0.1356,0.1362,0.1386,0.1382,0.1394,0.1406,0.1407,0.1464,0.1438,0.144,0.1511,0.1514,0.1519,0.1523,0.1613,0.1628,0.164,0,0,0,0,0,0,0.1253,0.128,0.1281,0.1308,0.133,0.1363,0.1377,0.1382,0.14,0.1401,0.1411,0.1416,0.1464,0.1459,0.1431,0.1547,0.1498,0.1503,0.1566,0.158,0.159,0.1664,0.1437,0,0,0,0,0,0.1249,0.1262,0.1291,0.1311,0.1321,0.1341,0.1355,0.1371,0.1392,0.14,0.1415,0.144,0.1483,0.1505,0.1525,0.157,0.1613,0.1623,0.1634,0.1643,0.1705,0.1804,0.1831,0.154,0.154,0.154,0,0,0.1258,0.127,0.1281,0.1309,0.1325,0.1377,0.1351,0.1378,0.1442,0.1398,0.1471,0.1465,0.1497,0.1565,0.1589,0.1572,0.1743,0.1649,0.1657,0.1715,0.1812,0.1841,0.1866,0.1543,0.1543,0.1542,0,0,0.1295,0.1285,0.1318,0.1339,0.1366,0.1389,0.1396,0.1427,0.1458,0.1498,0.1513,0.156,0.1577,0.1661,0.1695,0.1777,0.1787,0.176,0.1893,0.1987,0.2013,0.2036,0.2111,0.214,0.1779,0.1779,0.178,0,0.1304,0.1356,0.1333,0.1379,0.1421,0.1401,0.1473,0.1504,0.1541,0.1588,0.1532,0.1638,0.1654,0.1807,0.1848,0.1814,0.1844,0.1838,0.2005,0.2029,0.2052,0.2123,0.2154,0.1785,0.1784,0.1784,0.1783,0,0.1383,0.1424,0.1444,0.1505,0.1538,0.1586,0.1631,0.1664,0.167,0.1713,0.181,0.1822,0.19,0.1911,0.1909,0.209,0.2051,0.1996,0.1978,0.2088,0.2154,0.2185,0.1792,0.179,0.1789,0.1788,0,0,0.1431,0.1491,0.1505,0.155,0.1613,0.1648,0.175,0.1852,0.1917,0.1946,0.2054,0.2149,0.2135,0.2179,0.2179,0.2277,0.245,0.2214,0.2216,0.2301,0.2646,0.2537,0.2559,0.2405,0.2412,0.2417,0.2623,0,0.1515,0.1621,0.1639,0.1756,0.1823,0.1841,0.1932,0.2011,0.2048,0.2129,0.2196,0.2267,0.2245,0.2259,0.2371,0.2408,0.2538,0.2399,0.2519,0.2524,0.2424,0.2595,0.2485,0.2653,0.2653,0.2658,0.2662,0,0.1617,0.1673,0.18,0.1887,0.1916,0.1974,0.2095,0.2168,0.2283,0.2307,0.2406,0.2414,0.2589,0.2504,0.2728,0.2625,0.2686,0.2715,0.2722,0.2623,0.2475,0.2546,0.2708,0.2589,0.2709,0.2705,0.2702,0,0.1687,0.1795,0.1896,0.193,0.2022,0.2076,0.2123,0.2229,0.2279,0.2417,0.2438,0.2619,0.2663,0.2799,0.2859,0.2804,0.306,0.2977,0.2964,0.2954,0.2895,0.287,0.2978,0.3195,0.3195,0.3194,0.3193,0,0.1794,0.1869,0.192,0.1972,0.2055,0.2116,0.2201,0.2263,0.2354,0.2414,0.252,0.2585,0.2734,0.2856,0.2938,0.3047,0.3136,0.3062,0.3033,0.2919,0.2894,0.2808,0.2775,0.3202,0.32,0.3198,0.3197,0,0.1856,0.1907,0.199,0.207,0.2083,0.2132,0.2178,0.2228,0.2323,0.2398,0.2438,0.2594,0.2749,0.2886,0.309,0.3112,0.3148,0.3261,0.3104,0.3053,0.2878,0.2854,0.2885,0.2805,0.3301,0.33,0.33,0,0.1898,0.1952,0.2006,0.2017,0.2039,0.2095,0.2115,0.2199,0.2234,0.2386,0.2413,0.2592,0.2687,0.2944,0.3061,0.3229,0.3131,0.3192,0.309,0.2925,0.2879,0.273,0.2651,0.3056,0.3053,0.3051,0.3049,0,0.1944,0.1949,0.1991,0.1997,0.201,0.2029,0.2062,0.2083,0.2181,0.2251,0.2356,0.2453,0.2683,0.2795,0.2988,0.3076,0.3002,0.3145,0.3049,0.2795,0.2578,0.2462,0.2839,0.3029,0.3031,0.3032,0.3033,0.3034,0.1937,0.194,0.1958,0.1963,0.1962,0.1955,0.1956,0.199,0.2035,0.2117,0.2253,0.2352,0.2528,0.278,0.285,0.2856,0.2865,0.2789,0.281,0.2698,0.2522,0.2837,0.2919,0.292,0.2921,0.2922,0.2923,0,0.1917,0.1915,0.1915,0.191,0.1881,0.1901,0.1906,0.1896,0.1913,0.2003,0.2089,0.2227,0.234,0.2482,0.2607,0.2546,0.2436,0.2475,0.228,0.2246,0.2615,0.2497,0.2397,0.2397,0.2397,0.2397,0.2397,0.2397,0.1904,0.1896,0.1888,0.1831,0.1817,0.1756,0.1748,0.174,0.1774,0.1823,0.1879,0.1984,0.2163,0.2321,0.231,0.2281,0.2109,0.2006,0.1999,0.2277,0.2307,0.2335,0.2214,0.2056,0.2056,0.1501,0.1497,0.1494]},{"header":{"parameterUnit":"m.s-1","parameterCategory":2,"la1":30.2991,"la2":30.254,"lo1":-89.0895,"lo2":-89.0444,"dy":0.0017,"dx":0.0017,"nx":28,"ny":28,"refTime":"2025-05-19T03:00:00:Z","depth":"0","parameterNumber":3,"parameterNumberName":"V-component_of_CURRENTS"},"data":[0,0,0,0,0,0,0,0,0,0,0,0,0,0,0,0,0,0,0,0,0,0,0,0,0,0,0,0,0,0,0,0,0,0,0,0,0,0,0,0,0,0,0,0,0,0,0,0,0,0,0,0,0,0,0,0,0,0,-0.0074,-0.0074,0,-0.008,-0.008,-0.008,-0.0093,-0.0094,-0.0094,-0.0094,-0.0128,-0.0129,-0.0129,0,0,0,0,0,0,0,0,0,0,0,0,0,-0.0061,-0.0061,-0.0074,-0.0074,-0.0075,-0.008,-0.008,-0.008,-0.0093,-0.0094,-0.0094,-0.0094,-0.0128,-0.0129,-0.0129,0,0,0,0,0,0,0,0,0,0,0,0,0,-0.0067,-0.0061,-0.0074,-0.0082,-0.0082,-0.008,-0.008,-0.008,-0.0093,-0.0094,-0.0094,-0.0095,-0.0128,-0.0128,-0.0129,-0.0127,0,0,-0.0132,-0.0133,0,0,0,0,0,0,0,0,-0.0066,-0.0067,-0.0081,-0.0081,-0.0082,-0.0087,-0.0088,-0.0098,-0.0093,-0.0089,-0.0094,-0.0095,-0.0116,-0.0118,-0.0118,-0.0129,-0.013,-0.0132,-0.0133,-0.0133,-0.0134,0,0,0,0,0,0,0,-0.0066,-0.0067,-0.0077,-0.0081,-0.0081,-0.008,-0.0081,-0.009,-0.0101,-0.009,-0.009,-0.0091,-0.0117,-0.0117,-0.0119,-0.0131,-0.0132,-0.0133,-0.0134,-0.0134,-0.0094,-0.0093,0,0,0,0,0,0,-0.0066,-0.0066,-0.0076,-0.0077,-0.0075,-0.008,-0.0082,-0.0085,-0.01,-0.0103,-0.0091,-0.0092,-0.0115,-0.0118,-0.012,-0.0059,-0.0133,-0.0134,-0.0135,-0.0096,-0.0094,-0.0092,0,0,0,0,0,0,-0.0065,-0.0066,-0.0076,-0.0072,-0.0073,-0.008,-0.0083,-0.0085,-0.0086,-0.0101,-0.0104,-0.0091,-0.0116,-0.0119,-0.0119,-0.0063,-0.0135,-0.0136,-0.0098,-0.0095,-0.0093,0.0025,0,0,0,0,0,0,-0.0065,-0.0066,-0.0067,-0.0072,-0.0073,-0.0069,-0.0083,-0.0084,-0.0086,-0.0087,-0.0102,-0.0106,-0.0116,-0.0117,-0.012,-0.0066,-0.0136,-0.01,-0.0097,-0.0094,0.0019,0.0031,0.0042,0,0,0,0,0,-0.0064,-0.0054,-0.0067,-0.0068,-0.0074,-0.0068,-0.0068,-0.0075,-0.0085,-0.0079,-0.0088,-0.0105,-0.0099,-0.0118,-0.0121,-0.0065,-0.0101,-0.0097,-0.0094,0.0014,0.0029,0.0041,0,0,0,0,0,0,-0.004,-0.0055,-0.0069,-0.0063,-0.0066,-0.007,-0.0062,-0.0073,-0.0075,-0.0076,-0.0096,-0.01,-0.0074,-0.0095,-0.0115,-0.0045,-0.0098,-0.0095,-0.0015,-0.0001,0.001,0.0083,-0.0137,0,0,0,0,0,-0.0038,-0.0039,-0.0052,-0.0045,-0.0047,-0.0058,-0.0056,-0.0061,-0.0065,-0.0066,-0.0077,-0.0078,-0.006,-0.0054,-0.0055,-0.0026,-0.0027,0.001,0.0021,0.0031,0.0088,0.0111,0.0131,-0.008,-0.008,-0.008,0,0,-0.0024,-0.0034,-0.0033,-0.0041,-0.0044,-0.0014,-0.0057,-0.0049,-0.0011,-0.007,-0.003,-0.0048,-0.0048,-0.0006,0.0006,-0.0016,0.0086,0.0036,0.0045,0.0098,0.0118,0.0138,0.0157,-0.0077,-0.0078,-0.0078,0,0,0.0022,-0.0008,0.0016,0.0018,0.0016,0.0013,0.0016,0.001,0.0017,0.0035,0.0025,0.0052,0.0038,0.0087,0.0102,0.0175,0.0138,0.0153,0.0282,0.0302,0.0321,0.0337,0.0344,0.036,0.0167,0.0167,0.0168,0,0.0044,0.0077,0.0027,0.006,0.0091,0.0032,0.0094,0.0088,0.0085,0.0123,0.006,0.0127,0.0106,0.0227,0.0252,0.0211,0.0196,0.0229,0.032,0.0336,0.0351,0.0354,0.037,0.0174,0.0173,0.0172,0.0172,0,0.0121,0.015,0.0168,0.0196,0.021,0.025,0.0241,0.0252,0.0236,0.0249,0.0323,0.03,0.0356,0.0346,0.032,0.0438,0.0383,0.0323,0.0291,0.038,0.0376,0.0391,0.0182,0.018,0.0178,0.0177,0,0,0.0193,0.0221,0.0233,0.028,0.0298,0.0322,0.0379,0.0443,0.0499,0.0484,0.0585,0.0617,0.06,0.062,0.0594,0.0619,0.0685,0.0522,0.052,0.0542,0.0717,0.0658,0.0668,0.0621,0.0625,0.0628,0.0666,0,0.0291,0.0381,0.0379,0.049,0.0547,0.0533,0.0592,0.0629,0.0638,0.0697,0.0716,0.0769,0.0704,0.0721,0.0751,0.0696,0.0733,0.0681,0.062,0.062,0.0567,0.0687,0.0666,0.0697,0.068,0.0682,0.0684,0,0.0398,0.0445,0.0562,0.0652,0.0677,0.0727,0.0826,0.0867,0.0928,0.0936,0.1008,0.0983,0.1067,0.095,0.0978,0.0934,0.0865,0.0808,0.0806,0.0737,0.0592,0.0608,0.0724,0.0524,0.0706,0.0705,0.0703,0,0.049,0.0594,0.0694,0.0723,0.0792,0.0855,0.0894,0.0953,0.0999,0.1087,0.1119,0.1199,0.1213,0.1176,0.1063,0.1016,0.1045,0.0953,0.0857,0.0849,0.0822,0.0807,0.076,0.0996,0.0996,0.0996,0.0996,0,0.0612,0.0696,0.0736,0.0787,0.0899,0.0931,0.1042,0.1081,0.1153,0.1231,0.1243,0.1315,0.126,0.1248,0.1145,0.1062,0.1113,0.0939,0.0883,0.0857,0.0845,0.0658,0.0596,0.0997,0.0997,0.0996,0.0996,0,0.0688,0.0724,0.0823,0.0905,0.0935,0.1,0.1086,0.1157,0.1216,0.1316,0.1346,0.1409,0.1408,0.1334,0.1267,0.1156,0.0996,0.1026,0.0995,0.0937,0.0652,0.06,0.0598,0.0553,0.0956,0.0955,0.0954,0,0.0732,0.0791,0.0868,0.0914,0.095,0.104,0.1097,0.1171,0.1239,0.1371,0.1427,0.1477,0.1515,0.1417,0.1261,0.1125,0.0983,0.098,0.091,0.0692,0.0592,0.0546,0.0505,0.0907,0.0906,0.0905,0.0905,0,0.0807,0.0817,0.0876,0.0944,0.1013,0.1097,0.1188,0.1246,0.1343,0.1432,0.1559,0.1608,0.1545,0.1429,0.1231,0.1116,0.0873,0.0956,0.0756,0.061,0.0542,0.0448,0.0801,0.0897,0.0898,0.0899,0.0899,0.0899,0.0843,0.0872,0.0921,0.0991,0.1054,0.1144,0.1223,0.1322,0.1431,0.1582,0.1637,0.1709,0.1499,0.1254,0.1113,0.0751,0.0808,0.0597,0.057,0.0554,0.0476,0.0813,0.0815,0.0816,0.0816,0.0816,0.0816,0,0.0893,0.092,0.0976,0.1053,0.1109,0.1149,0.1278,0.1359,0.1488,0.1619,0.1735,0.1621,0.1325,0.1049,0.0622,0.0392,0.0325,0.0231,0.0156,0.0147,0.0456,0.0411,0.0296,0.0296,0.0296,0.0296,0.0297,0.0297,0.0923,0.0981,0.0994,0.1081,0.1136,0.1241,0.1319,0.1434,0.1532,0.1686,0.172,0.1755,0.1471,0.0622,0.0093,-0.0014,-0.0178,-0.0205,-0.0279,-0.0124,-0.0094,-0.0065,-0.0128,-0.0354,-0.0354,-0.0592,-0.0595,-0.0597]}],[{"header":{"parameterUnit":"m.s-1","parameterCategory":2,"la1":30.2991,"la2":30.254,"lo1":-89.0895,"lo2":-89.0444,"dy":0.0017,"dx":0.0017,"nx":28,"ny":28,"refTime":"2025-05-19T03:00:00:Z","depth":"2","parameterNumber":2,"parameterNumberName":"U-component_of_CURRENTS"},"data":[0,0,0,0,0,0,0,0,0,0,0,0,0,0,0,0,0,0,0,0,0,0,0,0,0,0,0,0,0,0,0,0,0,0,0,0,0,0,0,0,0,0,0,0,0,0,0,0,0,0,0,0,0,0,0,0,0,0,0.1318,0.1319,0,0.1371,0.1371,0.1371,0.1405,0.1406,0.1406,0.1406,0.1431,0.1432,0.1432,0,0,0,0,0,0,0,0,0,0,0,0,0,0.1237,0.1238,0.1318,0.1319,0.132,0.137,0.1371,0.1372,0.1405,0.1406,0.1406,0.1407,0.1431,0.1432,0.1432,0,0,0,0,0,0,0,0,0,0,0,0,0,0.1277,0.1239,0.1318,0.1344,0.1347,0.137,0.1371,0.1372,0.1405,0.1406,0.1406,0.1407,0.1431,0.1432,0.1432,0.1424,0,0,0.1433,0.1434,0,0,0,0,0,0,0,0,0.1275,0.128,0.1339,0.1342,0.1346,0.1384,0.1352,0.1388,0.1405,0.1381,0.1406,0.1407,0.1414,0.1415,0.1422,0.1425,0.1426,0.1433,0.1434,0.1434,0.1434,0,0,0,0,0,0,0,0.1272,0.1278,0.1337,0.134,0.1344,0.135,0.1356,0.1359,0.1392,0.1383,0.1386,0.1395,0.1415,0.1421,0.1423,0.1426,0.1433,0.1434,0.1434,0.1434,0.152,0.1521,0,0,0,0,0,0,0.127,0.1276,0.1335,0.1339,0.1313,0.1351,0.1358,0.1369,0.1392,0.1397,0.1394,0.1396,0.142,0.1422,0.1424,0.1509,0.1434,0.1434,0.1435,0.1518,0.152,0.1522,0,0,0,0,0,0,0.1268,0.1275,0.1333,0.1309,0.1318,0.1352,0.1365,0.137,0.138,0.1401,0.1405,0.1399,0.1421,0.1423,0.1438,0.1506,0.1435,0.1435,0.1515,0.1518,0.1521,0.1618,0,0,0,0,0,0,0.1265,0.1274,0.1278,0.1309,0.1319,0.1358,0.1364,0.1371,0.1385,0.1388,0.1406,0.1409,0.1421,0.1438,0.1439,0.1505,0.1435,0.1513,0.1517,0.152,0.1612,0.1624,0.1634,0,0,0,0,0,0.1262,0.1279,0.1278,0.1286,0.1326,0.1358,0.1364,0.1388,0.1384,0.1396,0.1408,0.1409,0.1464,0.1438,0.1439,0.1508,0.1511,0.1516,0.152,0.1607,0.1622,0.1634,0,0,0,0,0,0,0.1258,0.1285,0.1285,0.1311,0.1333,0.1365,0.1379,0.1384,0.1401,0.1403,0.1412,0.1417,0.1463,0.1459,0.1431,0.1544,0.1496,0.1501,0.1562,0.1575,0.1586,0.1661,0.1436,0,0,0,0,0,0.1254,0.1267,0.1295,0.1314,0.1324,0.1344,0.1357,0.1374,0.1394,0.1402,0.1416,0.1441,0.1482,0.1503,0.1523,0.1566,0.1591,0.1618,0.1628,0.1638,0.17,0.1785,0.1811,0.1537,0.1537,0.1537,0,0,0.1262,0.1274,0.1285,0.1312,0.1328,0.1379,0.1354,0.138,0.1443,0.14,0.1471,0.1465,0.1496,0.1562,0.1585,0.1569,0.1716,0.1643,0.1651,0.171,0.1793,0.182,0.1844,0.154,0.1539,0.1539,0,0,0.1298,0.1289,0.1322,0.1342,0.1368,0.1391,0.1397,0.1428,0.146,0.1498,0.1513,0.1559,0.1574,0.1657,0.169,0.177,0.176,0.1753,0.1885,0.1966,0.199,0.2012,0.2028,0.2051,0.1772,0.1772,0.1772,0,0.1307,0.1359,0.1337,0.1381,0.1422,0.1402,0.1472,0.1503,0.154,0.1588,0.1533,0.1638,0.165,0.1802,0.1841,0.1806,0.1812,0.1831,0.1984,0.2006,0.2027,0.2039,0.2063,0.1777,0.1777,0.1776,0.1775,0,0.1384,0.1425,0.1446,0.1504,0.1536,0.1584,0.1628,0.1663,0.167,0.171,0.1809,0.182,0.1897,0.1907,0.1901,0.2073,0.2011,0.1975,0.1955,0.2061,0.2065,0.2088,0.1785,0.1783,0.1781,0.178,0,0,0.143,0.1491,0.1505,0.155,0.161,0.1645,0.1748,0.185,0.1916,0.1946,0.2056,0.2146,0.2132,0.2174,0.2173,0.2259,0.2386,0.2189,0.2191,0.2215,0.2516,0.2324,0.2329,0.2361,0.2366,0.2371,0.2441,0,0.1513,0.1619,0.1636,0.1752,0.1819,0.1839,0.1931,0.2009,0.2046,0.2129,0.2197,0.2265,0.2241,0.2254,0.2356,0.2363,0.246,0.2369,0.2405,0.2407,0.2233,0.2357,0.2133,0.2165,0.2463,0.2467,0.247,0,0.1614,0.1669,0.1795,0.1885,0.1914,0.1972,0.2097,0.2169,0.2286,0.2308,0.2409,0.2416,0.257,0.2494,0.2651,0.2578,0.2593,0.2596,0.2597,0.2421,0.2262,0.2118,0.2196,0.2509,0.2506,0.2503,0.25,0,0.1682,0.179,0.1891,0.1925,0.2018,0.2077,0.2126,0.2232,0.2282,0.2417,0.2439,0.2601,0.2639,0.2729,0.271,0.2697,0.282,0.2791,0.2654,0.2636,0.2464,0.2421,0.2958,0.2958,0.2958,0.2958,0.2957,0,0.1784,0.1861,0.1917,0.1969,0.2054,0.2116,0.2204,0.2267,0.2358,0.2415,0.2521,0.2578,0.2699,0.2747,0.2767,0.2746,0.2867,0.2728,0.2675,0.2478,0.2438,0.2754,0.2729,0.296,0.2959,0.2959,0.2959,0,0.1835,0.1893,0.1978,0.2063,0.2082,0.213,0.2182,0.2229,0.2327,0.2402,0.2441,0.2579,0.2644,0.2699,0.2806,0.2771,0.279,0.2755,0.2472,0.2386,0.255,0.253,0.2676,0.2671,0.2666,0.2662,0.2659,0,0.1872,0.1919,0.1989,0.1995,0.2018,0.2079,0.2101,0.2196,0.2229,0.2378,0.2402,0.2512,0.2547,0.2594,0.2542,0.2534,0.2672,0.2346,0.2327,0.2606,0.2539,0.2526,0.2512,0.2121,0.2113,0.2107,0.2102,0,0.1892,0.19,0.1942,0.1963,0.1979,0.2006,0.2046,0.2062,0.2174,0.223,0.2316,0.2366,0.2383,0.2276,0.2221,0.2193,0.2327,0.2221,0.2637,0.2196,0.208,0.2013,0.202,0.2049,0.2054,0.2058,0.2061,0.2063,0.1852,0.186,0.1895,0.1898,0.1917,0.193,0.1933,0.1974,0.2015,0.2087,0.2174,0.2147,0.2111,0.1909,0.1848,0.1796,0.1962,0.1934,0.1955,0.1982,0.1876,0.1755,0.1641,0.1643,0.1646,0.1648,0.165,0,0.1817,0.1821,0.1816,0.1836,0.1829,0.1877,0.1888,0.1868,0.1876,0.191,0.1962,0.1658,0.1585,0.1572,0.1391,0.137,0.1387,0.136,0.1402,0.1452,0.1498,0.1371,0.1001,0.1,0.0998,0.0997,0,0,0.1799,0.178,0.1774,0.1747,0.1758,0.1741,0.1736,0.1725,0.1702,0.155,0.1463,0.1582,0.1501,0.1236,0.1189,0.1098,0.1283,0.1045,0.1553,0.1652,0.1697,0.1795,0.1649,0,0,0,0,0]},{"header":{"parameterUnit":"m.s-1","parameterCategory":2,"la1":30.2991,"la2":30.254,"lo1":-89.0895,"lo2":-89.0444,"dy":0.0017,"dx":0.0017,"nx":28,"ny":28,"refTime":"2025-05-19T03:00:00:Z","depth":"2","parameterNumber":3,"parameterNumberName":"V-component_of_CURRENTS"},"data":[0,0,0,0,0,0,0,0,0,0,0,0,0,0,0,0,0,0,0,0,0,0,0,0,0,0,0,0,0,0,0,0,0,0,0,0,0,0,0,0,0,0,0,0,0,0,0,0,0,0,0,0,0,0,0,0,0,0,-0.0145,-0.0145,0,-0.0152,-0.0152,-0.0153,-0.0164,-0.0164,-0.0165,-0.0165,-0.0206,-0.0207,-0.0207,0,0,0,0,0,0,0,0,0,0,0,0,0,-0.013,-0.013,-0.0145,-0.0145,-0.0145,-0.0152,-0.0152,-0.0153,-0.0164,-0.0164,-0.0165,-0.0165,-0.0205,-0.0206,-0.0208,0,0,0,0,0,0,0,0,0,0,0,0,0,-0.0137,-0.013,-0.0145,-0.0152,-0.0152,-0.0152,-0.0152,-0.0153,-0.0164,-0.0164,-0.0165,-0.0165,-0.0205,-0.0206,-0.0208,-0.021,0,0,-0.0212,-0.0212,0,0,0,0,0,0,0,0,-0.0136,-0.0137,-0.0151,-0.0151,-0.0152,-0.0158,-0.0162,-0.0173,-0.0164,-0.016,-0.0165,-0.0165,-0.0193,-0.0195,-0.0195,-0.0212,-0.0213,-0.0212,-0.0213,-0.0213,-0.0214,0,0,0,0,0,0,0,-0.0136,-0.0137,-0.0148,-0.0151,-0.0152,-0.0151,-0.0152,-0.0164,-0.0175,-0.016,-0.0161,-0.0162,-0.0193,-0.0194,-0.0196,-0.0214,-0.0212,-0.0213,-0.0214,-0.0214,-0.0192,-0.019,0,0,0,0,0,0,-0.0135,-0.0137,-0.0148,-0.0148,-0.0145,-0.0151,-0.0152,-0.0156,-0.0174,-0.0177,-0.0161,-0.0162,-0.0191,-0.0195,-0.0198,-0.0148,-0.0213,-0.0215,-0.0215,-0.0193,-0.0191,-0.019,0,0,0,0,0,0,-0.0135,-0.0136,-0.0147,-0.0142,-0.0144,-0.0151,-0.0154,-0.0156,-0.0157,-0.0175,-0.0178,-0.0161,-0.0192,-0.0196,-0.0201,-0.0151,-0.0215,-0.0216,-0.0195,-0.0193,-0.0191,-0.0082,0,0,0,0,0,0,-0.0135,-0.0136,-0.0137,-0.0142,-0.0144,-0.0141,-0.0154,-0.0155,-0.0157,-0.0158,-0.0176,-0.018,-0.0192,-0.0198,-0.0202,-0.0154,-0.0217,-0.0197,-0.0194,-0.0191,-0.0087,-0.0076,-0.0067,0,0,0,0,0,-0.0134,-0.0125,-0.0137,-0.0138,-0.0145,-0.0141,-0.0141,-0.0147,-0.0156,-0.0151,-0.0162,-0.0179,-0.0183,-0.0199,-0.0203,-0.0155,-0.0198,-0.0195,-0.0192,-0.0092,-0.0078,-0.0067,0,0,0,0,0,0,-0.011,-0.0126,-0.0138,-0.0133,-0.0138,-0.0143,-0.0135,-0.0145,-0.015,-0.0149,-0.0172,-0.0177,-0.0158,-0.018,-0.0196,-0.0141,-0.0189,-0.0187,-0.0111,-0.0099,-0.0089,-0.0022,-0.0219,0,0,0,0,0,-0.0109,-0.0109,-0.0123,-0.0117,-0.0119,-0.013,-0.0129,-0.0133,-0.0139,-0.0141,-0.0154,-0.0159,-0.0148,-0.0145,-0.015,-0.0128,-0.0168,-0.0098,-0.0087,-0.0079,-0.0027,-0.0036,-0.0021,-0.018,-0.018,-0.018,0,0,-0.0096,-0.0105,-0.0104,-0.0113,-0.0116,-0.0092,-0.0129,-0.0121,-0.0091,-0.0145,-0.0113,-0.0132,-0.0138,-0.0105,-0.0097,-0.0116,-0.0073,-0.0075,-0.0067,-0.0019,-0.0031,-0.0015,-0.0001,-0.0177,-0.0178,-0.0178,0,0,-0.0054,-0.0081,-0.006,-0.006,-0.0063,-0.0067,-0.0064,-0.0071,-0.0065,-0.0052,-0.0064,-0.0044,-0.0061,-0.0024,-0.0014,0.0048,-0.0024,0.003,0.0147,0.0136,0.015,0.0162,0.0052,0.0054,0.0043,0.0043,0.0043,0,-0.0034,-0.0008,-0.0052,-0.0024,0.0003,-0.005,0.0004,-0.0004,-0.0009,0.0024,-0.0031,0.0017,-0.0004,0.0093,0.0119,0.0079,0.0018,0.0101,0.0152,0.0163,0.0174,0.0059,0.0059,0.0049,0.0048,0.0048,0.0047,0,0.003,0.0055,0.0071,0.0092,0.0106,0.0139,0.013,0.0139,0.0125,0.0134,0.0193,0.0167,0.0214,0.02,0.018,0.0268,0.0176,0.0157,0.0125,0.0197,0.0069,0.0067,0.0057,0.0055,0.0053,0.0052,0,0,0.0095,0.0116,0.0126,0.0164,0.0181,0.0201,0.0252,0.0305,0.035,0.0334,0.0415,0.0442,0.0431,0.0445,0.042,0.0419,0.04,0.0331,0.0328,0.0229,0.0297,0.0169,0.0152,0.0383,0.0385,0.0387,0.0148,0,0.0178,0.0247,0.0252,0.0345,0.039,0.0384,0.0439,0.0471,0.0472,0.0514,0.0523,0.0567,0.0521,0.0539,0.0545,0.042,0.0414,0.0462,0.0239,0.0232,0.0118,0.0156,0.0238,0.0031,0.0146,0.0146,0.0145,0,0.0268,0.0301,0.0403,0.0483,0.0506,0.0557,0.0646,0.0684,0.0727,0.0723,0.078,0.0759,0.0779,0.0717,0.0595,0.0614,0.0505,0.04,0.0388,0.0253,0.0107,-0.0006,0.0023,0.0142,0.0142,0.0142,0.0143,0,0.0341,0.0426,0.0513,0.0539,0.0604,0.0673,0.0715,0.0767,0.0793,0.0862,0.0874,0.0895,0.0861,0.077,0.0548,0.0576,0.0346,0.0348,0.014,0.0122,0.0149,0.0132,0.033,0.033,0.033,0.0331,0.0332,0,0.0437,0.051,0.0551,0.0596,0.0702,0.0742,0.0856,0.0879,0.0922,0.0964,0.0994,0.0986,0.0879,0.073,0.0567,0.0291,0.0352,0.0176,0.0086,0.0174,0.0163,0.025,0.0244,0.0322,0.0324,0.0326,0.0327,0,0.0488,0.0529,0.0615,0.0698,0.0735,0.0799,0.0889,0.0935,0.0987,0.1033,0.1057,0.1006,0.0795,0.0618,0.0383,0.0271,0.0047,-0.0044,0.0006,-0.007,-0.0175,-0.0173,-0.0272,-0.0278,-0.0282,-0.0286,-0.029,0,0.0517,0.0554,0.065,0.0658,0.0696,0.0796,0.085,0.0947,0.0962,0.1018,0.1001,0.088,0.074,0.0304,0.011,-0.0201,-0.0167,-0.0292,-0.0159,-0.0142,-0.0221,-0.0211,-0.0202,-0.0133,-0.0135,-0.0137,-0.0138,0,0.0529,0.0555,0.0583,0.0641,0.0704,0.0785,0.0858,0.0895,0.0999,0.1004,0.0947,0.0858,0.0526,0.0235,-0.0141,-0.03,-0.0234,-0.0336,-0.0305,0.0006,-0.0029,-0.0102,-0.0093,-0.0151,-0.015,-0.0149,-0.0148,-0.0148,0.0469,0.049,0.0543,0.0579,0.0679,0.0788,0.084,0.0898,0.0961,0.1014,0.0878,0.0752,0.0496,-0.0004,-0.0255,-0.0419,-0.0412,-0.0414,-0.0401,-0.0387,-0.0328,-0.0369,-0.0551,-0.0552,-0.0552,-0.0553,-0.0554,0,0.0409,0.045,0.0463,0.0573,0.0681,0.0777,0.0846,0.0849,0.0918,0.0984,0.0911,0.0573,0.0281,0.0008,-0.0231,-0.0432,-0.034,-0.0487,-0.029,-0.0278,-0.0267,-0.0191,-0.0384,-0.0384,-0.0384,-0.0384,0,0,0.0375,0.0365,0.0395,0.0569,0.0674,0.0814,0.0856,0.0863,0.0864,0.0848,0.0827,0.0714,0.0333,0.0178,-0.0082,-0.0204,-0.0175,-0.0224,-0.0339,-0.0061,-0.0046,-0.0215,-0.0087,0,0,0,0,0]}],[{"header":{"parameterUnit":"m.s-1","parameterCategory":2,"la1":30.2991,"la2":30.254,"lo1":-89.0895,"lo2":-89.0444,"dy":0.0017,"dx":0.0017,"nx":28,"ny":28,"refTime":"2025-05-19T03:00:00:Z","depth":"4","parameterNumber":2,"parameterNumberName":"U-component_of_CURRENTS"},"data":[0,0,0,0,0,0,0,0,0,0,0,0,0,0,0,0,0,0,0,0,0,0,0,0,0,0,0,0,0,0,0,0,0,0,0,0,0,0,0,0,0,0,0,0,0,0,0,0,0,0,0,0,0,0,0,0,0,0,0.0474,0.0473,0,0.043,0.043,0.0429,0.0376,0.0376,0.0375,0.0375,0.0518,0.0522,0.0527,0,0,0,0,0,0,0,0,0,0,0,0,0,0.0524,0.0523,0.0474,0.0473,0.0473,0.043,0.043,0.0429,0.0377,0.0376,0.0375,0.0374,0.0517,0.0522,0.0527,0,0,0,0,0,0,0,0,0,0,0,0,0,0.0492,0.0523,0.0474,0.0443,0.044,0.043,0.0429,0.0429,0.0377,0.0376,0.0375,0.0374,0.0515,0.0521,0.0528,0.0589,0,0,0.0548,0.0551,0,0,0,0,0,0,0,0,0.0494,0.049,0.0448,0.0445,0.0442,0.0409,0.05,0.0492,0.0377,0.0399,0.0375,0.0373,0.0501,0.0508,0.0497,0.0596,0.0602,0.0549,0.0553,0.0556,0.0558,0,0,0,0,0,0,0,0.0496,0.0491,0.0455,0.0448,0.0444,0.0436,0.043,0.0497,0.0458,0.0397,0.0393,0.0392,0.05,0.0491,0.0501,0.0604,0.0549,0.0554,0.0559,0.0561,0.0882,0.0887,0,0,0,0,0,0,0.0505,0.0493,0.0456,0.0454,0.0468,0.0436,0.0429,0.0419,0.0453,0.0456,0.0393,0.0389,0.048,0.0493,0.0506,0.0667,0.0556,0.0562,0.0566,0.0878,0.0883,0.0888,0,0,0,0,0,0,0.0506,0.0502,0.0458,0.0474,0.0468,0.0436,0.0425,0.0419,0.0449,0.0448,0.0454,0.0434,0.048,0.0497,0.0631,0.067,0.0565,0.0571,0.0872,0.0879,0.0886,0.0936,0,0,0,0,0,0,0.0507,0.0502,0.0522,0.0475,0.0468,0.051,0.0426,0.0419,0.0447,0.0444,0.0486,0.0494,0.048,0.0622,0.0638,0.0677,0.0576,0.0867,0.0875,0.0883,0.0928,0.0943,0.0956,0,0,0,0,0,0.0509,0.0532,0.0523,0.052,0.0487,0.0514,0.0513,0.0483,0.0451,0.05,0.0531,0.0495,0.0685,0.0632,0.065,0.0691,0.0862,0.0873,0.0883,0.0922,0.094,0.0956,0,0,0,0,0,0,0.0544,0.0527,0.0516,0.0527,0.0551,0.0507,0.0553,0.0521,0.0575,0.0604,0.057,0.0586,0.0697,0.0723,0.0663,0.0815,0.0763,0.0777,0.0787,0.0804,0.0818,0.0774,0.0582,0,0,0,0,0,0.0567,0.0597,0.0579,0.0602,0.0628,0.0603,0.0616,0.0615,0.0638,0.0658,0.0661,0.0704,0.0748,0.0802,0.0845,0.0963,0.0913,0.1002,0.1015,0.1027,0.1009,0.0984,0.0991,0.0922,0.0922,0.0921,0,0,0.0582,0.0584,0.0596,0.0617,0.0636,0.0654,0.0611,0.0684,0.0686,0.0677,0.072,0.0759,0.0791,0.0886,0.094,0.092,0.1027,0.104,0.1048,0.1024,0.0995,0.1,0.1005,0.0929,0.0927,0.0926,0,0,0.0619,0.0651,0.0683,0.0713,0.0773,0.0765,0.0799,0.0804,0.0815,0.088,0.0857,0.0939,0.0999,0.1021,0.1037,0.1178,0.1089,0.1201,0.1246,0.1224,0.1226,0.1228,0.1174,0.117,0.122,0.1221,0.1221,0,0.0648,0.066,0.0704,0.0738,0.0756,0.0812,0.0837,0.0863,0.09,0.0914,0.0919,0.0979,0.1043,0.1101,0.1158,0.1201,0.1155,0.1166,0.1232,0.1233,0.1234,0.1177,0.1172,0.1224,0.1224,0.1223,0.1223,0,0.0672,0.0708,0.0753,0.0793,0.0825,0.0901,0.0923,0.0965,0.0982,0.0983,0.1058,0.1126,0.1149,0.12,0.1227,0.1282,0.1234,0.123,0.1163,0.1242,0.118,0.1174,0.1229,0.1228,0.1227,0.1226,0,0,0.0671,0.0753,0.0769,0.0779,0.0875,0.0886,0.0939,0.0977,0.0983,0.1054,0.1041,0.1168,0.1204,0.123,0.1279,0.1299,0.1307,0.1286,0.1283,0.1185,0.1216,0.1187,0.1177,0.1294,0.1294,0.1293,0.1167,0,0.0689,0.0721,0.0772,0.081,0.0822,0.0891,0.0902,0.0953,0.1007,0.1028,0.1117,0.1173,0.1215,0.1264,0.1282,0.1304,0.1293,0.1338,0.1195,0.119,0.1116,0.1171,0.1292,0.1162,0.116,0.1159,0.1158,0,0.0667,0.0696,0.0709,0.0765,0.0784,0.0805,0.0832,0.0881,0.0959,0.1003,0.1073,0.1141,0.1227,0.1247,0.1245,0.1264,0.1246,0.1241,0.1235,0.1178,0.1151,0.1075,0.1146,0.1147,0.1148,0.1149,0.1149,0,0.0549,0.0645,0.0643,0.0664,0.0728,0.0736,0.0796,0.0861,0.0911,0.1022,0.1056,0.1131,0.1184,0.1167,0.1218,0.1223,0.1171,0.1166,0.1094,0.1089,0.112,0.112,0.1121,0.1121,0.1121,0.1121,0.1122,0,0.05,0.0506,0.0585,0.0572,0.0592,0.0664,0.0707,0.077,0.0866,0.0934,0.1061,0.1095,0.117,0.1177,0.1177,0.112,0.1128,0.1088,0.106,0.1151,0.1156,0.1114,0.1115,0.1117,0.1118,0.1119,0.1119,0,0.0355,0.0412,0.0412,0.0488,0.0523,0.0533,0.068,0.0712,0.0818,0.0896,0.0948,0.1064,0.108,0.1108,0.1098,0.1071,0.1032,0.1002,0.1083,0.1063,0.0958,0.0964,0.0873,0.0871,0.0869,0.0868,0.0867,0,0.0282,0.0252,0.0329,0.0358,0.0408,0.0471,0.052,0.0664,0.0721,0.0867,0.0885,0.0962,0.1024,0.0935,0.0998,0.0945,0.095,0.0915,0.0957,0.0953,0.0935,0.0944,0.0952,0.0864,0.0864,0.0863,0.0863,0,0.015,0.017,0.0187,0.0247,0.0303,0.037,0.047,0.0485,0.0647,0.0745,0.0801,0.0854,0.0854,0.0878,0.0862,0.0837,0.0942,0.0897,0.09,0.0939,0.0941,0.0927,0.0937,0.0857,0.0858,0.0859,0.0859,0,0.0065,0.0059,0.0097,0.0155,0.0227,0.0268,0.0324,0.0402,0.047,0.0636,0.0649,0.0732,0.0823,0.0819,0.0808,0.079,0.0772,0.0757,0.0767,0.0774,0.0817,0.081,0.0649,0,0,0,0,0,-0.0002,0.0002,0.0028,0.0094,0.0164,0.0218,0.0297,0.0356,0.0487,0.0491,0.0572,0.0588,0.0631,0.0685,0.064,0.0756,0.0762,0.0706,0.0746,0.0826,0.0832,0.0903,0,0,0,0,0,0,-0.0041,-0.0027,-0.0006,0.0039,0.0084,0.0157,0.0199,0.0277,0.0288,0.042,0.0424,0.056,0.0578,0.0629,0.063,0.0646,0.066,0.0771,0.0769,0.0822,0.0828,0.0833,0.0908,0,0,0,0,0]},{"header":{"parameterUnit":"m.s-1","parameterCategory":2,"la1":30.2991,"la2":30.254,"lo1":-89.0895,"lo2":-89.0444,"dy":0.0017,"dx":0.0017,"nx":28,"ny":28,"refTime":"2025-05-19T03:00:00:Z","depth":"4","parameterNumber":3,"parameterNumberName":"V-component_of_CURRENTS"},"data":[0,0,0,0,0,0,0,0,0,0,0,0,0,0,0,0,0,0,0,0,0,0,0,0,0,0,0,0,0,0,0,0,0,0,0,0,0,0,0,0,0,0,0,0,0,0,0,0,0,0,0,0,0,0,0,0,0,0,-0.0044,-0.0045,0,-0.0157,-0.0159,-0.016,-0.0249,-0.025,-0.025,-0.0251,-0.0387,-0.039,-0.0393,0,0,0,0,0,0,0,0,0,0,0,0,0,0.0004,0.0004,-0.0044,-0.0045,-0.0046,-0.0157,-0.0159,-0.016,-0.0249,-0.025,-0.025,-0.0251,-0.0386,-0.039,-0.0393,0,0,0,0,0,0,0,0,0,0,0,0,0,-0.0055,0.0004,-0.0043,-0.0102,-0.0108,-0.0157,-0.0159,-0.0161,-0.0249,-0.025,-0.0251,-0.0252,-0.0385,-0.0389,-0.0394,-0.0401,0,0,-0.0408,-0.041,0,0,0,0,0,0,0,0,-0.0051,-0.0057,-0.0092,-0.0098,-0.0105,-0.0188,-0.0192,-0.0242,-0.0248,-0.0197,-0.0251,-0.0252,-0.0321,-0.0331,-0.0352,-0.0407,-0.0413,-0.0408,-0.0411,-0.0413,-0.0414,0,0,0,0,0,0,0,-0.0047,-0.0053,-0.009,-0.0093,-0.0101,-0.0154,-0.0163,-0.0202,-0.0254,-0.0202,-0.0208,-0.0217,-0.0325,-0.0348,-0.0356,-0.0415,-0.0408,-0.0412,-0.0415,-0.0416,-0.0498,-0.0497,0,0,0,0,0,0,-0.0023,-0.0048,-0.0087,-0.0094,-0.0078,-0.0154,-0.0164,-0.0162,-0.0253,-0.0267,-0.0216,-0.0221,-0.0339,-0.0351,-0.0361,-0.041,-0.0413,-0.0417,-0.0419,-0.0498,-0.0497,-0.0497,0,0,0,0,0,0,-0.0021,-0.0025,-0.0082,-0.0073,-0.0084,-0.0153,-0.015,-0.0164,-0.0216,-0.0263,-0.0279,-0.0258,-0.0341,-0.0355,-0.0405,-0.0415,-0.0419,-0.0423,-0.0499,-0.0498,-0.0497,-0.0485,0,0,0,0,0,0,-0.0019,-0.0023,-0.0038,-0.0071,-0.0083,-0.0138,-0.015,-0.0165,-0.0217,-0.0225,-0.0303,-0.0315,-0.0343,-0.0398,-0.0409,-0.0421,-0.0426,-0.0499,-0.0498,-0.0497,-0.0486,-0.0484,-0.0482,0,0,0,0,0,-0.0017,-0.0045,-0.0037,-0.0043,-0.0092,-0.0139,-0.0152,-0.0205,-0.0218,-0.0253,-0.0285,-0.0314,-0.0399,-0.0402,-0.0415,-0.0428,-0.05,-0.0499,-0.0497,-0.0487,-0.0485,-0.0482,0,0,0,0,0,0,-0.0057,-0.0057,-0.005,-0.0081,-0.0111,-0.0154,-0.02,-0.0217,-0.0271,-0.0278,-0.0319,-0.0334,-0.0375,-0.0399,-0.0401,-0.0443,-0.045,-0.0451,-0.0437,-0.0436,-0.0434,-0.0479,-0.043,0,0,0,0,0,-0.0058,-0.007,-0.0079,-0.0111,-0.0122,-0.0157,-0.0189,-0.021,-0.025,-0.0277,-0.031,-0.0343,-0.0375,-0.0405,-0.0432,-0.0469,-0.0497,-0.048,-0.0478,-0.0476,-0.0519,-0.0575,-0.0584,-0.0493,-0.0493,-0.0493,0,0,-0.0089,-0.0087,-0.0101,-0.0119,-0.0147,-0.0167,-0.0182,-0.023,-0.0255,-0.0281,-0.0329,-0.0341,-0.0381,-0.0412,-0.0433,-0.0441,-0.0499,-0.0475,-0.0473,-0.0519,-0.0575,-0.0585,-0.0593,-0.0492,-0.0492,-0.0492,0,0,-0.0151,-0.0144,-0.0172,-0.0178,-0.02,-0.0208,-0.022,-0.0247,-0.0277,-0.0306,-0.0321,-0.0347,-0.0391,-0.0422,-0.0445,-0.0452,-0.0482,-0.0444,-0.0486,-0.0538,-0.0548,-0.0556,-0.0533,-0.0541,-0.0449,-0.0449,-0.0449,0,-0.0192,-0.0207,-0.0197,-0.021,-0.0224,-0.0221,-0.0251,-0.0273,-0.0309,-0.034,-0.0322,-0.0383,-0.0403,-0.0468,-0.0461,-0.0454,-0.0467,-0.0493,-0.054,-0.0549,-0.0559,-0.0534,-0.0542,-0.0449,-0.0449,-0.0449,-0.0449,0,-0.0247,-0.0266,-0.0287,-0.0281,-0.0295,-0.0325,-0.032,-0.0338,-0.0343,-0.0364,-0.0415,-0.0424,-0.0474,-0.0459,-0.0469,-0.0536,-0.0512,-0.0525,-0.0553,-0.0568,-0.0538,-0.0547,-0.0448,-0.0448,-0.0448,-0.0448,0,0,-0.0318,-0.0327,-0.0334,-0.0323,-0.0329,-0.0329,-0.037,-0.0411,-0.0434,-0.0452,-0.0504,-0.0534,-0.054,-0.0566,-0.0563,-0.0603,-0.0634,-0.0597,-0.06,-0.0587,-0.0704,-0.058,-0.0577,-0.0664,-0.0667,-0.0669,-0.0632,0,-0.0372,-0.0387,-0.0397,-0.0414,-0.0407,-0.041,-0.0434,-0.0458,-0.0482,-0.0516,-0.0554,-0.0589,-0.0581,-0.0587,-0.0634,-0.0638,-0.0669,-0.064,-0.0684,-0.0685,-0.0585,-0.0589,-0.0679,-0.0639,-0.0641,-0.0642,-0.0643,0,-0.0414,-0.0404,-0.0425,-0.0425,-0.0429,-0.0441,-0.0457,-0.0492,-0.0554,-0.0576,-0.0642,-0.0659,-0.072,-0.0697,-0.0759,-0.0743,-0.0743,-0.0737,-0.0736,-0.0652,-0.0581,-0.0638,-0.0659,-0.0658,-0.0657,-0.0656,-0.0655,0,-0.0385,-0.0428,-0.0432,-0.0425,-0.042,-0.0446,-0.0472,-0.0516,-0.0522,-0.0631,-0.0621,-0.0731,-0.0726,-0.0799,-0.0764,-0.0786,-0.0796,-0.0821,-0.0709,-0.0696,-0.0827,-0.0819,-0.0895,-0.0895,-0.0895,-0.0896,-0.0896,0,-0.0393,-0.0394,-0.0413,-0.0381,-0.037,-0.0416,-0.0427,-0.0473,-0.0529,-0.0508,-0.0648,-0.0597,-0.0757,-0.0754,-0.0782,-0.0735,-0.0811,-0.0729,-0.0701,-0.0806,-0.0798,-0.0828,-0.0821,-0.0894,-0.0894,-0.0895,-0.0895,0,-0.0318,-0.0359,-0.0319,-0.0327,-0.0334,-0.0312,-0.034,-0.0339,-0.043,-0.0406,-0.0432,-0.0502,-0.0507,-0.0602,-0.0668,-0.0695,-0.0704,-0.0667,-0.071,-0.0682,-0.057,-0.0563,-0.0591,-0.0586,-0.0583,-0.058,-0.0577,0,-0.027,-0.0244,-0.0213,-0.0192,-0.0194,-0.0191,-0.0174,-0.0258,-0.0238,-0.0274,-0.0219,-0.0268,-0.0302,-0.0302,-0.0425,-0.0515,-0.0522,-0.0556,-0.0655,-0.0581,-0.0551,-0.0548,-0.0545,-0.0572,-0.0571,-0.057,-0.0569,0,-0.0147,-0.0141,-0.0103,-0.0047,-0.0025,0.002,0.0022,0.0052,-0.0021,-0.0065,-0.0024,-0.0095,-0.0083,-0.0192,-0.0267,-0.032,-0.0576,-0.0521,-0.0531,-0.0625,-0.0558,-0.0531,-0.0532,-0.0557,-0.0559,-0.056,-0.056,0,-0.0053,-0.0001,0.0021,0.0074,0.0119,0.0168,0.0169,0.0188,0.0189,0.0119,0.0187,0.0094,0.0024,-0.0073,-0.01,-0.0195,-0.0248,-0.0333,-0.0354,-0.0369,-0.0331,-0.0216,-0.0096,0,0,0,0,0,0.0017,0.0035,0.0114,0.0153,0.0215,0.0225,0.0273,0.0262,0.0237,0.0289,0.0205,0.0216,0.0101,0.0073,0.0002,-0.0041,-0.0265,-0.0129,-0.0374,-0.0489,-0.0503,-0.0488,0,0,0,0,0,0,0.0021,0.0079,0.0123,0.0207,0.0241,0.0302,0.0329,0.032,0.0343,0.0302,0.0266,0.0194,0.0112,0.0137,-0.0002,-0.0027,-0.0194,-0.0189,-0.019,-0.0481,-0.0494,-0.0505,-0.0494,0,0,0,0,0]}]]